GW3763 Weather Reports


time (UTC)temp
C
wind
direction
speed
KPH
gust
KPH
rain 1hr
cm
rain 24hr
cm
rain mn
cm
humidity
%
barometer
mb
20260505100309 -17 204 3.2 4.8 0.00 0.00 0.00 1005.5
20260505095805 -17 207 3.2 9.7 0.00 0.00 0.00 1005.6
20260505095304 -17 203 3.2 3.2 0.00 0.00 0.00 1005.5
20260505094758 -17 217 4.8 6.4 0.00 0.00 0.00 1005.4
20260505094255 -17 203 3.2 4.8 0.00 0.00 0.00 1005.5
20260505093750 -17 202 3.2 4.8 0.00 0.00 0.00 1005.4
20260505093249 -17 205 1.6 3.2 0.00 0.00 0.00 1005.3
20260505092745 -17 205 0.0 0.0 0.00 0.00 0.00 1005.4
20260505092244 -17 205 0.0 1.6 0.00 0.00 0.00 1005.3
20260505091741 -17 205 1.6 3.2 0.00 0.00 0.00 1005.3
20260505091239 -17 204 3.2 3.2 0.00 0.00 0.00 1005.3
20260505090736 -17 213 0.0 0.0 0.00 0.00 0.00 1005.4
20260505090234 -17 201 0.0 1.6 0.00 0.00 0.00 1005.3
20260505085731 -17 203 1.6 1.6 0.00 0.00 0.00 1005.3
20260505085229 -17 203 1.6 1.6 0.00 0.00 0.00 1005.3
20260505084726 -17 204 0.0 0.0 0.00 0.00 0.00 1005.2
20260505084226 -17 204 0.0 0.0 0.00 0.00 0.00 1005.4
20260505083722 -17 203 0.0 3.2 0.00 0.00 0.00 1005.5
20260505083219 -17 203 0.0 3.2 0.00 0.00 0.00 1005.4
20260505082715 -17 203 1.6 1.6 0.00 0.00 0.00 1005.4
20260505082212 -17 197 3.2 4.8 0.00 0.00 0.00 1005.4
20260505081707 -17 203 3.2 3.2 0.00 0.00 0.00 1005.5
20260505081206 -17 205 0.0 3.2 0.00 0.00 0.00 1005.6
20260505080703 -17 205 0.0 3.2 0.00 0.00 0.00 1005.5
20260505080158 -17 204 1.6 3.2 0.00 0.00 0.00 1005.4
20260505075654 -17 205 0.0 0.0 0.00 0.00 0.00 1005.3
20260505075151 -17 205 3.2 3.2 0.00 0.00 0.00 1005.2
20260505074648 -17 205 0.0 0.0 0.00 0.00 0.00 1005.3
20260505074145 -17 205 0.0 3.2 0.00 0.00 0.00 1005.3
20260505073643 -17 205 1.6 3.2 0.00 0.00 0.00 1005.5
20260505073141 -17 188 0.0 0.0 0.00 0.00 0.00 1005.1
20260505072636 -17 188 0.0 0.0 0.00 0.00 0.00 1005.3
20260505072133 -17 201 0.0 3.2 0.00 0.00 0.00 1005.3
20260505071628 -17 206 0.0 3.2 0.00 0.00 0.00 1005.5
20260505071126 -17 205 3.2 3.2 0.00 0.00 0.00 1005.5
20260505070623 -17 207 0.0 1.6 0.00 0.00 0.00 1005.3
20260505070119 -17 207 1.6 1.6 0.00 0.00 0.00 1005.4
20260505065616 -17 207 3.2 3.2 0.00 0.00 0.00 1005.4
20260505065112 -17 211 0.0 0.0 0.00 0.00 0.00 1005.3
20260505064609 -17 208 0.0 3.2 0.00 0.00 0.00 1005.5
20260505064108 -17 206 0.0 3.2 0.00 0.00 0.00 1005.5
20260505063605 -17 206 1.6 1.6 0.00 0.00 0.00 1005.5
20260505063100 -17 211 0.0 0.0 0.00 0.00 0.00 1005.5
20260505062557 -17 214 1.6 3.2 0.00 0.00 0.00 1005.3
20260505062054 -17 208 0.0 4.8 0.00 0.00 0.00 1005.6
20260505061552 -17 202 1.6 3.2 0.00 0.00 0.00 1005.6
20260505061050 -17 211 0.0 0.0 0.00 0.00 0.00 1005.5
20260505060547 -17 210 0.0 1.6 0.00 0.00 0.00 1005.5
20260505060044 -17 207 3.2 3.2 0.00 0.00 0.00 1005.5
20260505055539 -17 209 0.0 3.2 0.00 0.00 0.00 1005.5
20260505055036 -17 207 1.6 3.2 0.00 0.00 0.00 1005.7
20260505054533 -17 203 3.2 4.8 0.00 0.00 0.00 1005.7
20260505054031 -17 204 1.6 1.6 0.00 0.00 0.00 1005.6
20260505053528 -17 204 0.0 0.0 0.00 0.00 0.00 1005.5
20260505053025 -17 204 0.0 0.0 0.00 0.00 0.00 1005.8
20260505052522 -17 204 0.0 0.0 0.00 0.00 0.00 1005.7
20260505052019 -17 204 0.0 1.6 0.00 0.00 0.00 1005.8
20260505051516 -17 204 0.0 1.6 0.00 0.00 0.00 1005.6
20260505051014 -17 204 3.2 3.2 0.00 0.00 0.00 1005.8
20260505050512 -17 204 1.6 1.6 0.00 0.00 0.00 1005.8
20260505041439 -17 200 1.6 3.2 0.00 0.00 0.00 1005.5
20260505040937 -17 227 0.0 1.6 0.00 0.00 0.00 1005.5
20260505040434 -17 208 1.6 1.6 0.00 0.00 0.00 1005.4
20260505035931 -17 209 0.0 3.2 0.00 0.00 0.00 1005.6
20260505035426 -17 200 0.0 1.6 0.00 0.00 0.00 1005.5
20260505034924 -17 209 0.0 3.2 0.00 0.00 0.00 1005.4
20260505034420 -17 215 0.0 0.0 0.00 0.00 0.00 1005.4
20260505033917 -17 210 0.0 1.6 0.00 0.00 0.00 1005.6
20260505033414 -17 178 3.2 4.8 0.00 0.00 0.00 1005.4
20260505032913 -17 210 0.0 1.6 0.00 0.00 0.00 1005.5
20260505032409 -17 210 0.0 1.6 0.00 0.00 0.00 1005.5
20260505031906 -17 211 0.0 1.6 0.00 0.00 0.00 1005.3
20260505031403 -17 213 0.0 3.2 0.00 0.00 0.00 1005.6
20260505030859 -17 224 0.0 3.2 0.00 0.00 0.00 1005.6
20260505030350 -17 215 3.2 3.2 0.00 0.00 0.00 1005.6
20260505025845 -17 201 0.0 4.8 0.00 0.00 0.00 1005.7
20260505025343 -17 213 1.6 3.2 0.00 0.00 0.00 1005.6
20260505024842 -17 207 0.0 3.2 0.00 0.00 0.00 1005.7
20260505024339 -17 207 0.0 3.2 0.00 0.00 0.00 1005.8
20260505023835 -17 211 0.0 3.2 0.00 0.00 0.00 1005.7
20260505023332 -17 214 0.0 0.0 0.00 0.00 0.00 1005.7
20260505022830 -17 208 1.6 3.2 0.00 0.00 0.00 1006.0
20260505022327 -17 208 1.6 1.6 0.00 0.00 0.00 1005.9
20260505021825 -17 205 1.6 3.2 0.00 0.00 0.00 1005.9
20260505021321 -17 215 1.6 4.8 0.00 0.00 0.00 1005.7
20260505020817 -17 202 3.2 3.2 0.00 0.00 0.00 1005.8
20260505020312 -17 200 3.2 3.2 0.00 0.00 0.00 1005.7
20260505015809 -17 205 1.6 3.2 0.00 0.00 0.00 1005.8
20260505015306 -17 215 4.8 9.7 0.00 0.00 0.00 1005.7
20260505014803 -17 216 3.2 4.8 0.00 0.00 0.00 1005.9
20260505014301 -17 211 0.0 3.2 0.00 0.00 0.00 1005.7
20260505013757 -17 201 0.0 3.2 0.00 0.00 0.00 1005.6
20260505013255 -17 207 0.0 4.8 0.00 0.00 0.00 1005.6
20260505012753 -17 208 1.6 3.2 0.00 0.00 0.00 1005.8
20260505012250 -17 208 1.6 3.2 0.00 0.00 0.00 1005.5
20260505011746 -17 220 1.6 4.8 0.00 0.00 0.00 1005.7
20260505011243 -17 211 1.6 3.2 0.00 0.00 0.00 1005.6
20260505010738 -17 210 3.2 3.2 0.00 0.00 0.00 1005.6
20260505010234 -17 199 3.2 9.7 0.00 0.00 0.00 1005.5
20260505005731 -17 216 1.6 3.2 0.00 0.00 0.00 1005.5
20260505005228 -17 212 1.6 3.2 0.00 0.00 0.00 1005.5
20260505004725 -17 201 1.6 3.2 0.00 0.00 0.00 1005.5
20260505004222 -17 211 1.6 3.2 0.00 0.00 0.00 1005.2
20260505003719 -17 201 0.0 0.0 0.00 0.00 0.00 1005.3
20260505003217 -17 210 0.0 3.2 0.00 0.00 0.00 1005.2
20260505002712 -17 214 1.6 3.2 0.00 0.00 0.00 1005.0
20260505002210 -17 209 1.6 6.4 0.00 0.00 0.00 1004.9
20260505001708 -17 214 0.0 4.8 0.00 0.00 0.00 1004.8
20260505001205 -17 221 1.6 4.8 0.00 0.00 0.00 1005.1
20260505000702 -17 216 1.6 3.2 0.00 0.00 0.00 1004.8
20260505000200 -17 224 3.2 4.8 0.00 0.00 0.00 1004.9
20260504235656 -17 223 1.6 9.7 0.00 0.00 0.00 1004.8
20260504235152 -17 210 3.2 11.3 0.00 0.00 0.00 1005.0
20260504234650 -17 210 0.0 0.0 0.00 0.00 0.00 1004.7
20260504234147 -17 209 0.0 3.2 0.00 0.00 0.00 1004.7
20260504233643 -17 238 3.2 4.8 0.00 0.00 0.00 1004.7
20260504233139 -17 220 6.4 9.7 0.00 0.00 0.00 1004.7
20260504232637 -17 234 8.0 11.3 0.00 0.00 0.00 1004.6
20260504232134 -17 216 4.8 9.7 0.00 0.00 0.00 1004.6
20260504231630 -17 212 0.0 6.4 0.00 0.00 0.00 1004.6
20260504231127 -17 228 1.6 4.8 0.00 0.00 0.00 1004.6
20260504230623 -17 201 3.2 6.4 0.00 0.00 0.00 1004.5
20260504230122 -17 243 3.2 4.8 0.00 0.00 0.00 1004.6
20260504225620 -17 215 9.7 17.7 0.00 0.00 0.00 1004.5
20260504225115 -17 144 6.4 16.1 0.00 0.00 0.00 1004.2
20260504224612 -17 210 6.4 17.7 0.00 0.00 0.00 1004.3
20260504224109 -17 237 6.4 16.1 0.00 0.00 0.00 1004.2
20260504223606 -17 215 3.2 9.7 0.00 0.00 0.00 1004.1
20260504223101 -17 175 3.2 11.3 0.00 0.00 0.00 1004.2
20260504222559 -17 144 6.4 16.1 0.00 0.00 0.00 1004.1
20260504222056 -17 240 1.6 3.2 0.00 0.00 0.00 1004.0
20260504221553 -17 198 1.6 14.5 0.00 0.00 0.00 1004.0
20260504221050 -17 226 4.8 14.5 0.00 0.00 0.00 1004.2
20260504220546 -17 210 3.2 14.5 0.00 0.00 0.00 1004.1
20260504220043 -17 221 1.6 14.5 0.00 0.00 0.00 1004.1
20260504215539 -17 232 4.8 14.5 0.00 0.00 0.00 1004.3
20260504215037 -17 207 3.2 12.9 0.00 0.00 0.00 1004.2
20260504214533 -17 218 3.2 11.3 0.00 0.00 0.00 1004.1
20260504214030 -17 210 3.2 12.9 0.00 0.00 0.00 1004.2
20260504213526 -17 210 6.4 14.5 0.00 0.00 0.00 1004.2
20260504213024 -17 229 8.0 14.5 0.00 0.00 0.00 1004.3
20260504212519 -17 215 1.6 6.4 0.00 0.00 0.00 1004.3
20260504212017 -17 210 3.2 14.5 0.00 0.00 0.00 1004.3
20260504211514 -17 212 3.2 14.5 0.00 0.00 0.00 1004.3
20260504211011 -17 241 8.0 11.3 0.00 0.00 0.00 1004.5
20260504210508 -17 207 3.2 6.4 0.00 0.00 0.00 1004.6
20260504210004 -17 216 6.4 17.7 0.00 0.00 0.00 1004.7
20260504205502 -17 246 12.9 16.1 0.00 0.00 0.00 1004.6
20260504205000 -17 258 14.5 22.5 0.00 0.00 0.00 1004.8
20260504204458 -17 237 4.8 16.1 0.00 0.00 0.00 1004.6
20260504203957 -17 230 11.3 14.5 0.00 0.00 0.00 1005.0
20260504203454 -17 240 11.3 14.5 0.00 0.00 0.00 1004.9
20260504202950 -17 227 6.4 20.9 0.00 0.00 0.00 1005.1
20260504202446 -17 201 6.4 16.1 0.00 0.00 0.00 1005.0
20260504201943 -17 219 6.4 14.5 0.00 0.00 0.00 1005.1
20260504201435 -17 167 8.0 14.5 0.00 0.00 0.00 1005.4
20260504200932 -17 267 9.7 22.5 0.00 0.00 0.00 1005.4
20260504200429 -17 288 16.1 17.7 0.00 0.00 0.00 1005.1
20260504195926 -17 274 14.5 22.5 0.00 0.00 0.00 1005.3
20260504195421 -17 218 9.7 14.5 0.00 0.00 0.00 1005.3
20260504194918 -17 234 6.4 17.7 0.00 0.00 0.00 1005.3
20260504194414 -17 228 4.8 22.5 0.00 0.00 0.00 1005.3
20260504193910 -17 256 12.9 24.1 0.00 0.00 0.00 1005.5
20260504193408 -17 207 4.8 12.9 0.00 0.00 0.00 1005.6
20260504192907 -17 283 14.5 20.9 0.00 0.00 0.00 1005.6
20260504192403 -17 236 6.4 14.5 0.00 0.00 0.00 1005.5
20260504191902 -17 213 6.4 22.5 0.00 0.00 0.00 1005.7
20260504191359 -17 207 3.2 24.1 0.00 0.00 0.00 1005.7
20260504190854 -17 210 4.8 17.7 0.00 0.00 0.00 1005.9
20260504190351 -17 215 6.4 20.9 0.00 0.00 0.00 1005.9
20260504185847 -17 272 12.9 22.5 0.00 0.00 0.00 1005.7
20260504185344 -17 241 6.4 11.3 0.00 0.00 0.00 1005.7
20260504184840 -17 264 12.9 20.9 0.00 0.00 0.00 1006.1
20260504184337 -17 310 8.0 16.1 0.00 0.00 0.00 1005.8
20260504183832 -17 212 4.8 24.1 0.00 0.00 0.00 1006.0
20260504183330 -17 242 9.7 22.5 0.00 0.00 0.00 1005.9
20260504182828 -17 215 8.0 16.1 0.00 0.00 0.00 1005.9
20260504182325 -17 217 11.3 24.1 0.00 0.00 0.00 1006.1
20260504181822 -17 249 17.7 24.1 0.00 0.00 0.00 1006.2
20260504181319 -17 245 4.8 16.1 0.00 0.00 0.00 1006.2
20260504180818 -17 180 14.5 25.7 0.00 0.00 0.00 1006.2
20260504180316 -17 254 14.5 29.0 0.00 0.00 0.00 1006.2
20260504175814 -17 212 9.7 24.1 0.00 0.00 0.00 1006.2
20260504175310 -17 242 11.3 27.4 0.00 0.00 0.00 1006.3
20260504174809 -17 277 22.5 25.7 0.00 0.00 0.00 1006.4
20260504174306 -17 213 3.2 17.7 0.00 0.00 0.00 1006.3
20260504173803 -17 239 14.5 16.1 0.00 0.00 0.00 1006.4
20260504173259 -17 234 8.0 24.1 0.00 0.00 0.00 1006.3
20260504172756 -17 215 8.0 16.1 0.00 0.00 0.00 1006.3
20260504172252 -17 230 11.3 22.5 0.00 0.00 0.00 1006.4
20260504171748 -17 225 12.9 24.1 0.00 0.00 0.00 1006.4
20260504171246 -17 212 9.7 14.5 0.00 0.00 0.00 1006.5
20260504170743 -17 267 14.5 22.5 0.00 0.00 0.00 1006.4
20260504170240 -17 256 12.9 30.6 0.00 0.00 0.00 1006.7
20260504160158 -17 212 3.2 16.1 0.00 0.00 0.00 1007.5
20260504151126 -17 228 6.4 17.7 0.00 0.00 0.00 1008.1
20260504150624 -17 234 4.8 11.3 0.00 0.00 0.00 1007.9
20260504150120 -17 216 6.4 14.5 0.00 0.00 0.00 1007.9
20260504141049 -17 222 6.4 22.5 0.00 0.00 0.00 1008.1
20260504140545 -17 211 6.4 20.9 0.00 0.00 0.00 1008.1
20260504130510 -17 208 1.6 6.4 0.00 0.00 0.00 1008.7
20260504110357 -17 207 3.2 3.2 0.00 0.00 0.00 1008.7